Temp
15 15 15 15 14 14 14 14 13 13 13 13 12 12 11 11 11 11 11 11 11 11 10 10 10 10 10 10 10 10 10 10 9 9 9 9 9 9 8 9 9 9 9
15 15 14 14 14 14 13 13 13 13 12 11 11 11 11 11 10 10 10 10 10 11 11 10 10 10 10 10 10 10 10 10 9 9 9 8 8 8 8 8 8 9 9
15 15 14 14 14 14 13 13 13 13 12 12 11 10 10 10 9 9 9 10 10 10 10 10 10 9 9 9 9 9 10 10 10 9 9 9 9 9 9 9 9 9 9
13 12 12 12 12 11 11 11 11 10 9 10 9 9 8 9 8 8 8 8 8 9 9 10 9 9 9 9 9 9 9 9 9 9 9 9 9 9 9 9 9 9 8
12 12 12 12 11 11 11 11 11 10 9 8 7 9 9 9 10 9 9 8 8 8 8 9 9 9 9 8 8 9 9 9 8 9 9 9 8 8 8 8 8 8 8
12 12 12 12 12 12 11 11 11 10 10 10 9 9 9 9 9 9 8 8 8 7 7 7 7 7 8 8 8 8 8 8 8 8 8 8 8 7 7 7 7 7 6
13 13 12 12 12 12 12 12 12 11 10 10 9 9 9 9 9 8 8 8 7 7 7 7 7 6 6 6 7 7 7 7 8 7 7 8 8 7 7 6 6 7 7
12 12 12 12 12 12 12 12 12 12 12 11 10 10 10 9 9 8 7 7 7 7 7 6 6 6 6 6 6 6 6 6 6 7 7 7 7 7 6 6 6 6 6
12 12 11 11 11 11 10 10 10 10 10 10 10 9 9 9 9 8 7 7 7 6 6 6 6 6 6 5 5 5 5 5 5 6 6 5 5 6 6 5 6 5 5
11 11 11 10 10 10 9 9 9 9 9 9 9 9 9 9 9 8 7 6 6 6 7 6 7 6 5 5 4 5 4 5 5 5 4 4 4 4 5 4 4 5 5
11 11 10 10 10 9 9 9 9 9 8 8 9 8 8 8 7 7 7 6 5 6 5 5 5 5 5 4 3 3 3 3 1 2 3 2 1 2 3 3 3 3 3
10 10 10 9 9 8 8 8 7 7 8 8 8 8 7 7 7 6 6 6 6 5 4 4 4 4 3 3 2 3 2 2 0 -1 -0 -0 0 1 3 3 2 2 2
10 9 9 9 8 8 8 7 7 7 7 7 7 6 6 6 5 5 5 6 5 5 4 4 4 3 3 3 2 1 1 1 1 0 -0 -0 0 1 1 2 2 2 2
9 8 8 8 7 7 7 6 6 6 6 6 6 6 6 5 5 5 4 4 4 4 3 3 3 2 2 2 1 1 1 1 1 1 1 1 1 1 1 1 1 2 1
8 7 7 7 6 6 6 6 5 5 5 5 5 5 5 5 4 4 3 3 3 3 3 2 3 2 2 2 2 1 1 1 1 1 1 1 1 1 1 1 1 1 1
7 7 7 7 7 7 6 5 5 5 5 5 5 5 5 5 4 4 3 3 3 3 3 2 2 2 2 2 1 1 1 2 2 1 1 1 1 0 1 1 1 1 1
7 6 6 6 6 5 5 5 5 5 5 5 4 5 4 4 4 4 4 3 3 3 3 3 3 2 2 2 2 2 2 2 2 2 2 1 1 1 1 1 1 1 1
6 6 6 5 5 5 4 5 5 5 5 6 5 4 4 4 4 4 3 2 2 2 2 2 2 2 2 1 1 1 1 1 1 1 0 0 0 0 0 1 1 1 1
5 5 5 4 5 5 5 5 5 5 4 5 4 4 3 3 3 3 3 3 2 2 1 1 0 1 1 1 0 0 -0 -0 -0 -0 -0 0 0 -0 -1 -1 -1 -0 -0
5 4 4 4 5 5 5 5 4 3 2 3 2 2 2 2 2 1 1 0 -1 -1 -1 -1 -1 -1 -1 -1 -1 -1 -1 -1 -1 -2 -3 -3 -3 -3 -3 -4 -4 -4 -4
6 5 5 5 5 4 4 4 3 2 2 1 2 2 2 0 -0 -1 -1 -2 -2 -3 -3 -4 -4 -4 -4 -5 -5 -6 -5 -4 -4 -4 -3 -3 -3 -3 -3 -3 -4 -4 -4
6 6 5 5 5 4 4 3 3 2 2 1 0 0 -0 -2 -3 -4 -4 -4 -4 -4 -5 -4 -5 -5 -5 -5 -5 -5 -5 -6 -6 -5 -5 -3 -3 -3 -4 -4 -4 -3 -3
6 6 6 5 4 4 3 3 2 2 1 0 -1 -2 -3 -4 -4 -4 -4 -4 -4 -4 -4 -4 -4 -5 -5 -5 -4 -4 -4 -3 -4 -4 -5 -5 -5 -4 -4 -4 -4 -3 -3
5 5 4 4 3 3 1 0 1 1 -0 -1 -2 -3 -3 -3 -3 -4 -4 -4 -4 -4 -4 -4 -4 -4 -3 -3 -3 -2 -3 -3 -4 -4 -4 -4 -4 -3 -3 -3 -3 -3 -3
5 4 4 3 3 2 1 1 0 -1 -2 -3 -4 -4 -3 -3 -3 -4 -4 -4 -4 -4 -3 -3 -3 -3 -2 -2 -3 -3 -3 -3 -3 -3 -3 -3 -3 -3 -4 -3 -3 -3 -3
4 3 3 3 2 1 1 -0 -1 -3 -4 -4 -4 -4 -4 -4 -4 -4 -4 -4 -3 -3 -3 -3 -3 -3 -3 -3 -3 -3 -3 -3 -3 -4 -4 -4 -4 -4 -4 -4 -4 -4 -4
Height
3199 3199 3198 3197 3195 3194 3193 3193 3191 3190 3189 3187 3185 3184 3184 3184 3184 3185 3185 3186 3184 3184 3184 3183 3182 3181 3181 3180 3180 3180 3179 3179 3178 3177 3177 3175 3175 3176 3176 3175 3175 3175 3174
3199 3198 3198 3196 3195 3193 3191 3189 3187 3187 3186 3186 3187 3185 3182 3182 3181 3182 3181 3183 3183 3181 3180 3179 3178 3177 3176 3176 3176 3176 3176 3176 3176 3174 3171 3171 3172 3172 3171 3171 3170 3170 3169
3197 3196 3194 3192 3190 3188 3186 3186 3185 3181 3178 3177 3181 3181 3179 3179 3174 3173 3174 3176 3177 3176 3176 3176 3174 3173 3172 3173 3171 3170 3170 3170 3169 3169 3169 3168 3166 3166 3166 3166 3165 3163 3163
3191 3190 3188 3187 3184 3182 3179 3178 3175 3174 3162 3150 3154 3170 3171 3172 3169 3164 3165 3168 3170 3171 3169 3169 3169 3169 3168 3166 3166 3166 3165 3164 3163 3163 3162 3162 3162 3161 3160 3159 3160 3158 3157
3190 3187 3186 3183 3181 3177 3173 3173 3171 3167 3161 3148 3137 3159 3162 3164 3161 3157 3157 3160 3162 3162 3161 3161 3162 3162 3162 3161 3160 3160 3160 3159 3157 3156 3155 3155 3155 3154 3154 3154 3153 3154 3153
3188 3185 3183 3180 3177 3172 3169 3168 3166 3163 3160 3157 3160 3159 3159 3156 3151 3150 3149 3151 3151 3152 3152 3152 3152 3153 3154 3154 3153 3153 3153 3153 3152 3152 3151 3149 3148 3148 3148 3148 3147 3148 3147
3184 3182 3179 3176 3174 3171 3166 3162 3160 3156 3154 3153 3152 3151 3149 3145 3142 3142 3141 3141 3141 3143 3144 3142 3142 3141 3141 3144 3146 3146 3145 3144 3144 3144 3144 3144 3142 3141 3141 3141 3141 3141 3142
3178 3176 3174 3172 3169 3165 3161 3157 3153 3151 3148 3143 3140 3137 3135 3133 3132 3131 3132 3131 3131 3132 3133 3133 3132 3133 3131 3134 3135 3137 3137 3136 3136 3136 3136 3136 3136 3135 3135 3135 3135 3134 3135
3174 3172 3170 3167 3163 3160 3156 3152 3148 3145 3142 3139 3134 3130 3127 3125 3124 3123 3123 3123 3122 3121 3122 3123 3123 3122 3122 3124 3126 3127 3128 3128 3129 3130 3130 3129 3129 3129 3127 3127 3127 3128 3128
3171 3168 3166 3163 3159 3156 3153 3150 3146 3142 3137 3133 3130 3127 3124 3122 3119 3117 3116 3115 3115 3113 3110 3109 3111 3111 3110 3114 3116 3118 3119 3120 3121 3121 3121 3122 3122 3122 3122 3120 3121 3121 3122
3168 3165 3162 3159 3156 3153 3150 3147 3144 3139 3135 3131 3128 3124 3121 3118 3117 3116 3114 3111 3110 3110 3107 3103 3103 3109 3106 3109 3111 3110 3110 3111 3112 3114 3113 3113 3114 3115 3116 3117 3116 3116 3116
3166 3163 3161 3158 3155 3152 3149 3146 3143 3140 3136 3132 3128 3125 3122 3118 3116 3115 3113 3111 3109 3109 3107 3105 3106 3106 3109 3105 3105 3103 3104 3105 3106 3109 3108 3110 3109 3110 3111 3110 3110 3110 3110
3164 3162 3160 3157 3154 3152 3149 3146 3144 3140 3138 3135 3132 3128 3125 3122 3119 3117 3114 3112 3110 3108 3107 3107 3109 3108 3105 3104 3102 3100 3100 3100 3101 3103 3105 3104 3105 3105 3105 3105 3105 3104 3104
3162 3160 3158 3156 3153 3151 3148 3146 3144 3141 3138 3135 3132 3129 3126 3123 3120 3118 3115 3113 3112 3110 3109 3108 3107 3106 3103 3102 3101 3100 3099 3099 3099 3100 3100 3100 3100 3100 3099 3098 3097 3097 3097
3160 3158 3156 3154 3152 3150 3148 3146 3143 3139 3137 3134 3131 3128 3125 3122 3119 3116 3114 3112 3111 3110 3109 3108 3107 3105 3103 3102 3100 3099 3098 3095 3093 3095 3096 3095 3094 3093 3092 3090 3090 3089 3089
3156 3154 3153 3152 3151 3149 3146 3144 3141 3137 3135 3132 3130 3126 3123 3120 3117 3114 3112 3109 3107 3105 3104 3102 3101 3100 3099 3098 3096 3096 3094 3091 3090 3089 3087 3088 3087 3085 3084 3083 3082 3081 3080
3153 3151 3150 3148 3146 3145 3144 3141 3138 3135 3133 3131 3128 3123 3121 3118 3115 3112 3109 3106 3104 3102 3100 3098 3096 3094 3093 3092 3090 3088 3086 3085 3085 3083 3082 3080 3078 3077 3076 3075 3074 3071 3071
3150 3149 3148 3146 3144 3143 3139 3137 3135 3132 3130 3128 3125 3122 3117 3115 3112 3110 3107 3104 3101 3099 3096 3094 3092 3090 3088 3086 3084 3082 3080 3079 3077 3075 3074 3072 3071 3070 3068 3066 3064 3063 3061
3148 3146 3144 3143 3141 3140 3138 3135 3132 3127 3125 3125 3121 3119 3115 3111 3107 3105 3102 3100 3098 3096 3094 3091 3089 3086 3083 3081 3079 3077 3075 3073 3071 3070 3068 3065 3064 3062 3060 3058 3057 3055 3054
3144 3143 3142 3140 3138 3137 3134 3132 3129 3125 3122 3121 3118 3115 3114 3110 3106 3103 3100 3097 3094 3091 3089 3086 3083 3081 3079 3077 3074 3072 3070 3068 3066 3064 3063 3061 3059 3056 3054 3052 3050 3048 3045
3141 3139 3138 3137 3136 3134 3131 3129 3127 3125 3121 3119 3117 3113 3110 3107 3104 3101 3098 3095 3092 3090 3087 3084 3081 3078 3076 3073 3071 3068 3066 3064 3062 3059 3057 3054 3052 3049 3046 3044 3042 3039 3036
3136 3136 3134 3134 3132 3130 3127 3126 3123 3121 3119 3116 3113 3111 3108 3105 3102 3100 3097 3094 3091 3089 3086 3083 3081 3078 3074 3071 3068 3065 3062 3059 3056 3053 3049 3046 3042 3040 3037 3034 3032 3029 3026
3132 3132 3131 3130 3128 3125 3123 3122 3120 3118 3115 3113 3111 3109 3107 3104 3101 3099 3096 3094 3090 3087 3084 3081 3078 3074 3070 3065 3061 3059 3055 3052 3048 3044 3041 3038 3034 3030 3027 3023 3019 3016 3013
3130 3128 3127 3125 3123 3122 3120 3117 3115 3114 3112 3110 3108 3106 3104 3102 3099 3096 3093 3090 3087 3084 3081 3077 3072 3065 3062 3057 3053 3050 3046 3043 3039 3035 3031 3028 3024 3021 3017 3013 3010 3006 3002
3127 3125 3123 3121 3120 3118 3117 3116 3114 3112 3109 3107 3104 3102 3101 3100 3096 3092 3089 3085 3081 3077 3073 3069 3064 3057 3054 3051 3047 3043 3039 3035 3030 3026 3022 3018 3014 3011 3007 3002 2999 2995 2992
3123 3121 3119 3118 3116 3114 3114 3113 3111 3109 3107 3104 3102 3099 3097 3094 3090 3087 3083 3078 3073 3070 3067 3062 3057 3051 3047 3043 3039 3035 3030 3026 3022 3017 3013 3009 3006 3003 2998 2995 2991 2986 2982
Wind_Speed
4 2 1 1 3 5 7 9 11 14 17 19 18 16 16 14 14 14 13 12 11 10 8 8 8 9 8 7 7 7 7 7 9 16 18 20 21 19 16 17 16 13 15
4 4 5 7 10 11 12 15 18 19 21 22 22 20 20 17 15 16 19 19 18 18 15 11 11 11 11 9 9 9 9 8 9 12 18 19 19 18 18 17 18 17 20
11 12 13 14 15 17 19 21 25 26 28 25 19 22 20 21 18 16 15 20 21 22 23 21 18 14 15 14 14 12 11 11 12 12 14 18 20 21 18 17 17 18 19
19 20 21 23 24 25 26 26 30 32 35 35 22 16 18 22 28 18 15 20 23 26 27 27 25 23 20 18 18 17 16 15 16 16 16 17 19 20 21 20 17 20 17
22 21 21 20 23 25 29 31 31 32 36 34 20 32 30 29 25 17 20 18 23 28 29 30 29 27 25 23 23 21 19 20 20 20 20 19 19 20 20 18 17 15 17
20 22 25 27 28 32 34 34 35 35 37 33 32 33 31 32 27 23 26 24 24 27 28 30 32 28 28 27 27 25 24 23 23 23 23 24 21 19 18 19 20 17 17
17 20 22 25 28 29 32 32 30 30 30 31 31 33 32 31 27 24 27 30 30 30 32 33 33 30 26 29 28 28 25 24 25 24 24 26 26 23 20 20 21 20 18
12 14 15 17 19 21 23 26 28 31 32 34 34 32 31 30 27 28 29 35 38 35 32 31 33 34 35 33 29 32 27 24 24 25 24 23 25 24 21 21 20 20 18
14 15 17 18 19 19 19 19 19 21 23 25 28 28 26 26 28 29 28 28 29 25 32 31 33 28 32 37 31 34 37 33 32 31 22 17 19 25 22 19 19 19 16
15 16 15 15 15 15 15 15 18 21 22 19 17 17 18 20 22 19 19 25 29 31 41 40 37 26 26 32 32 30 35 34 28 28 21 21 21 27 26 17 16 16 14
15 16 16 15 16 16 17 17 18 18 18 18 17 17 17 17 11 13 15 8 15 8 13 20 25 29 38 28 31 30 34 33 24 23 22 18 24 25 20 15 11 8 10
13 14 13 12 14 15 15 17 18 19 19 17 17 17 19 20 17 15 10 10 12 8 3 13 11 16 27 25 27 26 21 23 25 26 28 24 21 14 15 10 9 10 10
14 11 10 11 13 13 15 16 15 17 16 17 17 17 19 19 18 16 16 16 14 12 8 6 12 16 16 15 9 6 4 8 13 24 29 32 14 14 15 12 13 14 11
11 10 10 11 12 13 14 13 15 15 17 17 17 18 19 19 19 18 16 14 11 9 10 9 9 10 10 7 6 7 9 10 9 9 12 14 14 16 18 19 17 17 17
9 9 9 10 10 12 13 14 16 19 18 17 19 21 21 19 18 17 18 17 15 12 11 11 12 13 10 12 12 14 17 19 15 19 17 19 21 24 23 22 23 22 28
9 9 10 10 10 12 13 14 17 17 16 16 21 23 20 18 18 17 17 17 16 15 15 14 15 15 16 14 17 17 21 17 13 17 17 20 23 28 27 24 25 28 27
10 10 11 12 15 16 14 17 19 19 20 21 20 18 18 17 18 17 16 15 15 15 15 14 14 16 15 17 20 17 18 18 20 23 25 24 25 25 23 26 27 27 28
10 12 12 13 15 17 17 19 19 19 19 19 17 17 19 19 18 16 14 14 14 15 16 16 17 17 17 17 17 17 17 18 19 20 21 22 22 22 23 24 24 25 26
10 12 15 16 16 16 15 18 20 21 21 20 23 22 21 22 22 22 22 19 17 17 15 16 17 16 17 17 18 18 16 16 16 16 16 18 19 20 21 21 21 21 21
12 12 13 15 16 16 16 17 17 19 21 22 22 23 19 18 19 20 19 21 21 20 22 24 23 20 17 14 14 15 16 15 15 17 18 21 23 24 24 25 26 28 30
8 9 12 13 14 15 15 14 15 15 18 17 17 20 21 17 15 16 16 19 20 20 21 23 25 25 24 22 23 26 25 22 24 26 25 24 25 27 29 31 32 33 35
12 11 12 13 12 13 14 14 13 13 14 18 17 17 16 17 17 17 17 19 21 22 26 28 27 27 28 31 30 31 32 32 34 33 31 29 28 28 29 32 33 32 32
14 15 14 13 14 15 16 13 12 11 11 12 11 14 14 11 12 15 17 21 24 26 28 28 28 29 31 33 34 33 34 34 32 33 33 33 35 37 38 38 39 40 38
15 15 14 13 15 13 12 12 13 14 13 13 13 14 11 14 19 23 26 30 32 31 28 27 28 30 31 33 35 36 36 36 34 32 32 34 34 35 37 38 39 39 39
14 14 16 15 14 13 10 11 13 13 12 12 16 19 17 20 25 29 32 34 35 35 31 28 29 31 30 29 29 30 30 31 31 33 33 33 34 33 34 34 34 35 36
13 15 16 15 14 14 13 11 11 10 11 14 20 23 23 26 29 33 35 32 27 24 25 27 27 29 29 29 29 29 31 32 32 31 30 28 26 25 26 26 27 29 31
Wind_Direction
104 89 51 279 244 262 278 275 263 264 261 265 266 265 265 267 271 277 284 284 287 294 296 289 285 285 290 288 282 281 267 247 245 265 265 281 291 301 300 295 290 268 254
257 265 263 285 292 286 275 271 275 278 274 274 276 268 269 269 280 284 289 292 293 290 283 276 277 276 276 278 278 273 271 270 259 256 274 274 277 278 278 278 273 270 259
293 295 298 295 287 287 288 293 297 288 284 276 269 271 273 275 267 263 276 286 285 282 283 281 271 263 268 275 272 265 267 266 268 270 266 274 282 288 284 274 264 257 256
302 303 301 302 304 306 299 296 297 295 292 274 241 292 282 294 288 262 261 279 284 281 272 270 270 270 267 265 266 275 274 265 264 267 270 273 278 282 284 283 277 263 248
289 290 294 293 289 287 287 289 295 294 298 322 264 312 298 308 300 272 262 275 285 284 274 271 266 266 266 265 268 269 271 274 275 273 271 273 280 285 286 284 274 275 280
275 278 280 284 284 288 291 291 293 295 297 299 293 294 293 294 296 282 266 263 266 275 269 268 264 259 264 266 267 270 274 277 277 279 281 283 283 281 280 279 275 264 258
269 274 279 281 286 289 292 295 299 299 296 294 292 289 290 291 289 277 264 265 274 280 276 268 266 263 265 264 268 273 271 272 276 281 284 285 281 277 274 269 266 267 260
311 307 306 304 304 304 304 303 302 301 301 302 301 300 300 297 292 285 276 275 278 277 272 266 266 268 263 266 256 258 268 272 277 276 272 271 272 270 267 264 261 260 257
328 322 320 319 316 316 316 314 312 313 313 309 308 308 304 299 292 284 277 275 272 274 258 256 265 248 263 262 254 251 255 266 268 274 270 264 267 270 259 259 262 262 255
329 329 331 329 327 330 332 331 331 327 325 323 321 315 311 311 305 302 289 278 274 262 248 244 222 263 216 252 259 259 260 258 255 261 258 252 255 263 260 253 256 258 258
335 333 338 343 345 350 349 349 354 356 360 357 356 356 355 353 325 334 307 355 311 296 284 256 259 259 260 270 282 266 256 254 247 249 243 250 253 252 260 261 261 253 258
343 344 353 357 358 358 357 1 3 8 10 13 19 20 26 26 24 29 14 335 340 321 304 270 282 270 283 284 292 288 287 282 258 247 269 257 251 252 261 261 279 287 279
348 355 356 358 3 2 0 1 8 11 10 10 12 14 16 24 28 29 35 38 33 22 346 289 276 279 305 306 320 13 309 291 278 268 254 249 242 251 259 266 266 270 278
348 348 355 1 356 353 353 355 352 355 355 354 355 354 354 354 356 359 5 9 9 15 15 8 2 356 351 340 317 302 292 286 276 257 250 251 257 261 260 259 259 266 270
344 348 353 356 354 347 341 345 343 342 342 348 350 348 345 342 340 339 337 336 337 333 327 324 325 315 311 308 294 282 281 279 262 256 262 272 269 274 275 275 282 275 276
331 336 336 344 349 344 342 341 338 341 349 349 347 341 336 335 333 332 330 329 327 325 316 310 300 283 298 277 276 286 287 278 273 261 277 277 278 285 284 280 280 279 278
323 322 327 334 339 335 331 330 330 328 328 331 336 335 332 331 331 334 333 326 321 320 314 311 305 299 296 289 288 293 288 282 272 271 275 278 279 286 288 284 284 281 279
304 307 311 323 329 329 318 321 320 318 324 331 337 337 333 330 329 331 329 327 319 315 316 317 314 314 310 304 300 297 292 291 290 289 288 288 288 286 284 284 284 282 281
297 300 309 321 320 317 313 315 318 322 327 335 331 332 337 334 332 333 335 341 341 332 330 329 327 319 314 309 308 308 307 303 299 293 291 292 298 303 307 307 307 302 298
297 296 303 306 315 313 311 316 320 319 314 317 322 323 334 334 332 336 339 340 344 345 345 346 347 345 337 325 317 318 315 314 310 315 311 308 309 308 305 305 304 301 300
303 297 304 314 310 306 310 309 302 298 298 304 313 321 335 346 344 347 345 348 348 347 346 349 348 347 348 347 342 330 325 321 317 315 307 299 300 298 298 293 288 289 290
305 310 306 306 304 304 303 310 312 312 313 315 321 328 340 351 1 357 349 336 331 326 328 329 327 326 321 322 317 315 310 306 302 301 304 308 307 307 307 307 298 292 291
305 307 314 313 310 313 312 315 311 314 316 317 327 330 345 333 317 308 302 305 306 307 312 315 317 314 308 301 301 301 304 301 302 303 306 306 306 306 305 305 304 303 302
297 304 310 311 311 310 302 299 310 321 329 323 328 325 304 299 299 301 309 316 316 309 315 314 305 300 302 303 305 304 303 303 307 310 308 306 303 301 300 298 298 298 298
302 303 310 309 304 304 303 301 309 318 329 321 312 311 302 302 302 306 310 311 312 313 306 309 310 306 309 311 312 312 310 309 307 307 307 307 306 305 303 301 300 297 296
301 302 304 305 303 305 315 316 317 327 317 297 298 309 307 310 309 308 308 311 313 314 315 313 312 311 313 315 313 309 310 311 311 311 312 314 317 318 317 318 318 315 313